Regional Weather Roundup
Issued by NWS

Home | Current Version | Previous Version | Text Only | Print | Product List | Glossary Off
Versions: 1 2 3 4 5 6 7 8 9 10 11 12 13 14 15 16 17 18 19 20 21 22 23 24 25 26 27 28 29 30 31 32 33 34 35 36 37 38 39 40 41 42 43 44 45 46 47 48 49 50

000
ASUS43 KMKX 290800
RWRWI

WISCONSIN REGIONAL WEATHER ROUNDUP
NATIONAL WEATHER SERVICE MILWAUKEE/SULLIVAN WI
300 AM CDT MON AUG 29 2016

NOTE: "FAIR" INDICATES FEW OR NO CLOUDS BELOW 12,000 FEET WITH NO
SIGNIFICANT WEATHER AND/OR OBSTRUCTIONS TO VISIBILITY.

WIZ001-002-006>008-014>016-023>028-290900-
NORTHWEST WISCONSIN

CITY           SKY/WX    TMP DP  RH WIND       PRES   REMARKS
SUPERIOR ARPT  CLOUDY    64  64  99 CALM      30.11F
ASHLAND        CLOUDY    59  59 100 S3        30.15F FOG
HAYWARD        CLOUDY    64  61  90 CALM      30.17F
SIREN          CLOUDY    68  66  93 S7        30.14F
CUMBERLAND     CLOUDY    64  63  94 CALM      30.17S
RICE LAKE      CLOUDY    66  64  93 E3        30.19R
CHETEK         NOT AVBL
LADYSMITH      CLOUDY    65  64  95 SE3       30.21S
EAU CLAIRE     NOT AVBL
MENOMONIE      CLEAR     66  65  99 E5        30.17R
NEW RICHMOND   CLEAR     69  68  98 S3        30.15S
OSCEOLA        CLEAR     70  70 100 CALM      30.16R
$$

WIZ003>005-009-010-017-018-290900-
NORTH CENTRAL WISCONSIN

CITY           SKY/WX    TMP DP  RH WIND       PRES   REMARKS
MANITOWISH WTR NOT AVBL
ARBOR VITAE    CLOUDY    62  60  94 CALM      30.24R
WOODRUFF       CLOUDY    62  60  94 CALM      30.24R
RHINELANDER    CLOUDY    61  61 100 CALM      30.26R
EAGLE RIVER    CLOUDY    60  60 100 S5        30.24R
LAND O LAKES   CLOUDY    54  54 100 CALM      30.25R
PHILLIPS       CLOUDY    64  63  98 CALM      30.22R
TOMAHAWK       CLOUDY    59  58  96 CALM      30.25R FOG
MEDFORD        CLOUDY    64  64 100 CALM      30.22R
MERRILL        CLOUDY    56  56 100 CALM      30.24S
$$

WIZ029-030-035-036-043>047-290900-
CENTRAL WISCONSIN

CITY           SKY/WX    TMP DP  RH WIND       PRES   REMARKS
WAUSAU         CLOUDY    64  63  96 E6        30.23R
MOSINEE        CLOUDY    63  63 100 SE5       30.24S
MARSHFIELD     PTCLDY    67  63  87 S6        30.22R
STEVENS POINT  CLOUDY    63  62  97 CALM      30.23S
WAUPACA        CLOUDY    67  67  98 CALM      30.23S FOG
WAUTOMA        CLOUDY    65  64  97 CALM      30.23S
WISC RAPIDS    CLOUDY    68  67  96 SE5       30.24R
CAMP DOUGLAS   FOG       61  61  99 E5        30.20S VSB 3/4
$$

WIZ011>013-019>022-031-037>040-048>050-290900-
NORTHEAST WISCONSIN

CITY           SKY/WX    TMP DP  RH WIND       PRES   REMARKS
ANTIGO         PTCLDY    60  60 100 CALM      30.26R FOG
SHAWANO        CLOUDY    67  64  87 S5        30.24S
OCONTO         NOT AVBL
STURGEON BAY   CLEAR     61  61 100 CALM      30.25S FOG
GREEN BAY      PTCLDY    61  61 100 CALM      30.24S
MANITOWOC      FOG       59  57  94 MISG      30.25R VSB 1
APPLETON       CLOUDY    66  64  94 S6        30.23S
CLINTONVILLE   CLOUDY    63  63 100 CALM      30.24R FOG
OSHKOSH        CLOUDY    66  63  90 E3        30.23S
$$

WIZ032>034-041-042-053>061-290900-
SOUTHWEST WISCONSIN

CITY           SKY/WX    TMP DP  RH WIND       PRES   REMARKS
LA CROSSE      CLEAR     69  68  96 E3        30.17S
SPARTA         CLEAR     60  60 100 CALM      30.20S
VIROQUA        MOCLDY    66  66 100 CALM      30.21S VSB 1
BOSCOBEL       FOG       68  67  96 CALM      30.20R VSB 1/4
PRAIRIE DU CHI PTCLDY    68  66  94 CALM      30.18R
PLATTEVILLE    CLEAR     69  69 100 E7        30.21S
$$

WIZ056-057-062-063-064-067-068-290900-
SOUTH CENTRAL WISCONSIN

CITY           SKY/WX    TMP DP  RH WIND       PRES   REMARKS
REEDSBURG      NOT AVBL
BARABOO/DELLS  CLEAR     62  61  95 SE3       30.21S FOG
LONE ROCK      NOT AVBL
MINERAL POINT  CLEAR     70  68  94 SE6       30.22S
MADISON        CLOUDY    69  67  93 E5        30.21S
MIDDLETON      MOCLDY    69  69 100 E5        30.22S
WATERTOWN      PTCLDY    64  64 100 CALM      30.23R
MONROE         PTCLDY    68  66  94 SE5       30.22S
JANESVILLE     MOCLDY    68  68 100 E3        30.21F FOG
$$

WIZ051-052-058>065-066-070>072-290900-
SOUTHEAST WISCONSIN

CITY           SKY/WX    TMP DP  RH WIND       PRES   REMARKS
MILWAUKEE      FOG       67  65  93 NE3       30.22S VSB 1/2
WAUKESHA         N/A     63  63 100 CALM      30.24S FOG
MILWAUKEE/TIMM PTCLDY    64  61  88 CALM      30.23S
RACINE         PTCLDY    65  63  93 CALM      30.24R
BURLINGTON     FOG       62  61  99 CALM      30.22S VSB 3/4
KENOSHA        MOCLDY    66  64  93 NE3       30.22S FOG
FOND DU LAC    CLOUDY    67  64  90 S6        30.23F
SHEBOYGAN      FOG       60  59  96 CALM      30.24R VSB 3/4
WEST BEND      FOG       61  61 100 CALM      30.24S VSB 1/2
JUNEAU         PTCLDY    65  63  95 CALM      30.24S
$$

LSZ147-162-290900-
LAKE SUPERIOR

STATION/POSITION TIME  TEMP    WIND        PRES    WAVE
                       AIR SEA DIR/SP/G            HT/PER
                 (UTC) (F)     (DEG/KT/KT) (MB)    (FT/S)
W MID LAKE BUOY  0650   67 67  150/ 14/ 16 1020.5S   1/ 2
DEVILS ISLAND    0700   67     140/  3/  5 1020.5F
PORT WING        0700   65     170/  3/  5 1020.7
SAXON HARBOR     0740   64     200/  5/  7 1020.3F
$$

LMZ867-665-643>646-290900-
LAKE MICHIGAN

STATION/POSITION TIME  TEMP    WIND        PRES    WAVE
                       AIR SEA DIR/SP/G            HT/PER
                 (UTC) (F)     (DEG/KT/KT) (MB)    (FT/S)
CHAMBERS ISLAND  0740   62        CALM     1023.7F
S GREEN BAY BUOY 0530   69 72  180/  6/  8 1023.1R
N MID LAKE BUOY  0650   70 71  120/  6/  8 1023.4F   0
NORTHPORT PIER   0700   66     180/  2/  4 1023.7S
KEWAUNEE LAKESHO 0700   60     300/  2/  3 1023.2F
SHEBOYGAN LAKESH 0700   65      CALM  /  1 1023.4F
PORT WASHINGTON  0740   64     290/  2/  3 1024.4S
ATWATER BUOY     0700   66      20/  6/  6   N/A
MILWAUKEE LAKESH 0710   67      30/  5/  6   N/A
S MID LAKE BUOY  0650   73 75   80/  6/  6 1022.9F   1
KENOSHA   LAKESH 0700   69      CALM  /  1 1022.7F
$$

TC  - TEMPERATURE IN CELSIUS
VSB - VISIBILITY IN STATUTE MILES
WCI - WIND CHILL INDEX
HX  - HEAT INDEX




USA.gov is the U.S. government's official web portal to all federal, state and local government web resources and services.